Location: Hylvaty SDH
(49.9612°N, 16.4057°E)
Time: 19:56:23
(UTC+02:00)

Transit 4A - Pass Details

Date: 15 August 2020
Orbit: 862 x 982 km, 66.8° (Epoch: 28 September)

Event Time Altitude Azimuth Distance (km) Brightness Sun altitude
Rises 11:47:38 0° 270° (W) 3,546 10.8 51.1°
Reaches altitude 10° 11:50:41 10° 285° (WNW) 2,628 10.1 51.3°
Maximum altitude 11:55:27 23° 336° (NNW) 1,897 9.4 51.6°
Drops below altitude 10° 12:00:20 10° 28° (NNE) 2,697 10.2 52.0°
Sets 12:03:32 0° 42° (NE) 3,662 10.8 52.2°
